Simultaneous Nadir Overpasses (SNOs) Predictions

Prediction of SNOs between FY3D and METOP-A Satellite Orbit:

Table of predicted SNOs for the next 14.0 days since TLE Epoch: 1/16/2021
Index Date (FY3D) Time (FY3D) Lat,Lon (FY3D) SZA (FY3D ) Date (METOP-A) Time (METOP-A) Lat,Lon (METOP-A) SZA (METOP-A ) Distance(km) Time Diff (sec)
1 01/24/2021 22:05:04 -77.12, 10.08 83.11 01/24/2021 22:06:08 -77.07, 14.10 83.47 99.97 64
2 01/24/2021 22:55:44 76.88, 178.39 96.58 01/24/2021 22:56:53 76.83,-179.49 96.36 53.97 69
3 01/24/2021 23:46:26 -76.81, -14.03 83.51 01/24/2021 23:47:36 -76.78, -12.35 83.69 42.97 70
4 01/25/2021 00:37:06 76.57, 154.23 96.18 01/25/2021 00:38:20 76.58, 154.26 96.17 1.83 74
5 01/25/2021 01:27:50 -76.59, -38.54 83.80 01/25/2021 01:29:02 -76.58, -38.43 83.85 3.32 72
6 01/25/2021 02:18:35 76.57, 128.86 96.16 01/25/2021 02:19:42 76.57, 128.85 96.14 0.52 67
7 01/25/2021 03:09:18 -76.55, -63.74 83.88 01/25/2021 03:10:24 -76.56, -63.83 83.88 2.76 66
8 01/25/2021 04:00:04 76.57, 103.49 96.15 01/25/2021 04:01:04 76.55, 103.44 96.11 2.84 60
9 01/25/2021 04:50:47 -76.55, -89.11 83.89 01/25/2021 04:51:46 -76.54, -89.24 83.91 3.40 59
10 01/25/2021 05:41:33 76.57, 78.12 96.13 01/25/2021 05:42:25 76.57, 78.20 96.11 2.02 52
11 01/25/2021 06:32:16 -76.55,-114.49 83.91 01/25/2021 06:33:07 -76.57,-114.49 83.90 2.31 51
12 01/25/2021 07:23:02 76.57, 52.75 96.11 01/25/2021 07:23:47 76.55, 52.79 96.08 1.94 45
13 01/25/2021 08:13:45 -76.55,-139.86 83.93 01/25/2021 08:14:29 -76.55,-139.90 83.93 1.08 44
14 01/25/2021 09:04:31 76.57, 27.38 96.10 01/25/2021 09:05:09 76.54, 27.38 96.05 3.79 38
15 01/25/2021 09:55:14 -76.55,-165.23 83.94 01/25/2021 09:55:51 -76.53,-165.31 83.97 2.77 37
16 01/25/2021 10:46:00 76.57, 2.01 96.08 01/25/2021 10:46:30 76.56, 2.13 96.05 3.37 30
17 01/25/2021 11:36:43 -76.55, 169.40 83.96 01/25/2021 11:37:12 -76.56, 169.45 83.96 1.63 29
18 01/25/2021 12:27:28 76.53, -23.19 96.01 01/25/2021 12:27:52 76.54, -23.28 96.02 2.92 24
19 01/25/2021 13:18:12 -76.55, 144.03 83.98 01/25/2021 13:18:34 -76.54, 144.04 83.99 1.03 22
20 01/25/2021 14:08:57 76.53, -48.57 95.99 01/25/2021 14:09:14 76.52, -48.68 95.99 3.09 17
21 01/25/2021 14:59:41 -76.55, 118.66 83.99 01/25/2021 14:59:56 -76.52, 118.63 84.02 3.19 15
22 01/25/2021 15:50:26 76.53, -73.94 95.97 01/25/2021 15:50:35 76.55, -73.93 95.99 2.89 9
23 01/25/2021 16:41:10 -76.55, 93.29 84.01 01/25/2021 16:41:17 -76.55, 93.39 84.02 2.51 7
24 01/25/2021 17:31:55 76.53, -99.31 95.96 01/25/2021 17:31:57 76.53, -99.34 95.96 1.11 2
25 01/25/2021 18:22:39 -76.55, 67.92 84.03 01/25/2021 18:22:39 -76.53, 67.98 84.05 2.70 0
26 01/25/2021 19:13:24 76.53,-124.68 95.94 01/25/2021 19:13:19 76.51,-124.75 95.93 2.24 5
27 01/25/2021 20:04:07 -76.51, 42.72 84.10 01/25/2021 20:04:01 -76.51, 42.57 84.08 3.86 6
28 01/25/2021 20:54:52 76.53,-150.05 95.92 01/25/2021 20:54:39 76.54,-149.99 95.93 2.19 13
29 01/25/2021 21:45:35 -76.51, 17.35 84.12 01/25/2021 21:45:21 -76.54, 17.32 84.08 3.64 14
30 01/25/2021 22:36:21 76.53,-175.42 95.90 01/25/2021 22:36:01 76.52,-175.40 95.90 0.71 20
31 01/25/2021 23:27:04 -76.51, -8.03 84.14 01/25/2021 23:26:43 -76.52, -8.08 84.11 2.14 21
32 01/26/2021 00:17:50 76.53, 159.21 95.89 01/26/2021 00:17:23 76.50, 159.19 95.87 2.67 27
33 01/26/2021 01:08:33 -76.51, -33.40 84.15 01/26/2021 01:08:05 -76.50, -33.49 84.14 2.57 28
34 01/26/2021 01:59:19 76.53, 133.84 95.87 01/26/2021 01:58:44 76.53, 133.94 95.88 2.81 35
35 01/26/2021 02:50:02 -76.51, -58.77 84.17 01/26/2021 02:49:26 -76.53, -58.74 84.14 2.49 36
36 01/26/2021 03:40:48 76.53, 108.47 95.85 01/26/2021 03:40:06 76.51, 108.54 95.84 2.54 42
37 01/26/2021 04:31:31 -76.51, -84.14 84.19 01/26/2021 04:30:48 -76.51, -84.15 84.17 0.35 43
38 01/26/2021 05:22:16 76.48, 83.26 95.78 01/26/2021 05:21:28 76.49, 83.13 95.81 3.70 48
39 01/26/2021 06:13:00 -76.51,-109.51 84.20 01/26/2021 06:12:10 -76.49,-109.55 84.20 2.19 50
40 01/26/2021 07:03:45 76.48, 57.89 95.76 01/26/2021 07:02:49 76.52, 57.88 95.82 4.06 56
41 01/26/2021 07:54:29 -76.51,-134.88 84.22 01/26/2021 07:53:31 -76.52,-134.80 84.20 2.35 58
42 01/26/2021 08:45:14 76.48, 32.52 95.75 01/26/2021 08:44:11 76.50, 32.47 95.78 2.30 63
43 01/26/2021 09:35:58 -76.51,-160.25 84.24 01/26/2021 09:34:53 -76.50,-160.21 84.23 1.44 65
44 01/26/2021 10:26:43 76.48, 7.15 95.73 01/26/2021 10:25:33 76.48, 7.06 95.75 2.24 70
45 01/26/2021 11:17:27 -76.51, 174.38 84.26 01/26/2021 11:16:15 -76.48, 174.38 84.26 3.06 72
46 01/26/2021 12:08:10 76.39, -17.89 95.60 01/26/2021 12:06:57 76.37, -18.67 95.66 20.57 73
47 01/26/2021 12:58:52 -76.33, 149.67 84.49 01/26/2021 12:57:40 -76.32, 148.49 84.39 30.92 72
48 01/26/2021 13:49:32 76.08, -42.12 95.20 01/26/2021 13:48:25 76.07, -45.01 95.44 77.39 67
49 01/26/2021 14:40:14 -76.01, 125.42 84.89 01/26/2021 14:39:08 -76.03, 122.16 84.61 87.67 66



Historial Predications of SNOs between FY3D and METOP-A
